DELTA 1 DEB, 10716

Orbit data source: Space-Track

DELTA 1 DEB, 10716 is space debris in SSO originally from a launch on Thu, 29 Jul 1976 UTC launched from the Air Force Western Test Range (AFWTR). Debris objects in space refer to the collection of defunct objects orbiting the Earth. Examples of debris include non-operational satellites, rocket bodies, and fragments generated from explosions, collisions, or faulty payload assembly.

Loading next visibility...
DELTA 1 DEB details
Identifier
10716, 1976-077AM
Orbit
SSO
Last TLE update9 hours ago
Origin
Flag of USGSFC (US)
ManufacturerUnknown
MissionSpacecraft
Bus & MotorUnknown
MassUnknown
Launch date (UTC)
1976-07-29 (48 years ago)
Launch vehicleUnknown
Launch site
Air Force Western Test Range (AFWTR)
Object type
Payload
Rocket body
Debris
Shape & HBRUnknown
Radar Cross SectionSmall (<0.1 m²)

Expand to show TLE details & history

TLE from 9 hours ago
0 DELTA 1 DEB
1 10716U 76077AM  24361.23736227  .00007103  00000-0  31290-1 0  9997
2 10716 102.8167 123.7857 0088744  77.6456 350.2211 12.79115274207913
Epoch: 2024-12-26T05:41Z
Definitive object data (Epoch: 2024-12-26T05:41:48.1Z)
Latitude64.5252°
Longitude-85.25078°
Altitude1,288.405 km
Speed7.249 km/s
True Right ascension06h 21m 40s
True Declination64° 24' 02"
Sunlit
Object was in full shadow at TLE epoch
Visualization TLE readout
Latitude-54.59402°
Longitude-37.90197°
Altitude1,412.755 km
Speed7.132 km/s
Apparent Right ascension05h 25m 00s
Apparent Declination-64° 13' 40"
Sunlit
Object is in daylight
Visualization observer readout
Local Sidereal Time13:48:05
Azimuth213.768° SW
Elevation-50.604°
Doppler factor1
Orbital elements
Apogee altitude1,411.121 km
Perigee altitude1,274.087 km
Semi-major axis7,720.741 km
Eccentricity0.0088744
Inclination102.8167°
RAAN123.7857°
Arg. of periapsis77.6456°
True anomaly350.04647°
Mean anomaly350.2211°
Eccentric anomaly350.13398°
Mean motion3.1993 °/min
BSTAR0.03129
Orbital period112.52 mins
Loading maneuver chart data...
Loading historical data...
Loading historical data...
Loading historical data...
Loading historical data...
Loading historical data...
Loading historical data...
Loading historical data...

DELTA 1 DEB Visibility forecast

Observer location: undefined°, undefined

Span
Click to sort rows by Start time (UTC) header in descending order
Start Az.
Max El. time (UTC)
Max El. Az.
Max El.
End time (UTC)
End Az.
14 mins2024-12-26 20:58:15.216Z27.836° NE2024-12-26 21:05:15.216Z102.689° ESE39.842°2024-12-26 21:12:15.216Z181.056° SSW
11 mins2024-12-26 22:50:15.216Z354.4° N2024-12-26 22:55:15.216Z303.885° NW27.576°2024-12-26 23:01:15.216Z246.816° WSW
5 mins2024-12-27 05:59:15.216Z68.141° E2024-12-27 06:01:15.216Z51.279° ENE13.89°2024-12-27 06:04:15.216Z25.589° NE
12 mins2024-12-27 07:45:15.216Z144.684° SSE2024-12-27 07:51:15.216Z45.618° ENE42.598°2024-12-27 07:57:15.216Z347.471° N
10 mins2024-12-27 09:37:15.216Z221.351° SW2024-12-27 09:41:15.216Z258.115° W21.266°2024-12-27 09:47:15.216Z312.554° NW
|